Regional Weather Roundup
Issued by NWS

Home | Current Version | Previous Version | Text Only | Print | Product List | Glossary Off
Versions: 1 2 3 4 5 6 7 8 9 10 11 12 13 14 15 16 17 18 19 20 21 22 23 24 25 26 27 28 29 30 31 32 33 34 35 36 37 38 39 40 41 42 43 44 45 46 47 48 49 50

000
ASUS45 KBOU 300807
RWRCO

WEATHER ROUNDUP FOR COLORADO
NATIONAL WEATHER SERVICE DENVER/BOULDER CO
100 AM MST FRI JAN 30 2015

NOTE: "FAIR" INDICATES FEW OR NO CLOUDS BELOW 12000 FEET WITH NO
SIGNIFICANT WEATHER AND/OR OBSTRUCTIONS TO VISIBILITY.

COZ001>005-013-030-031-300900-
...NORTHWEST COLORADO...

CITY           SKY/WX    TMP DP  RH WIND       PRES   REMARKS
CRAIG            N/A     29  27  92 CALM      30.30F
HAYDEN         CLOUDY    30  25  80 CALM      30.29S
MEEKER         FLURRIES  33  28  81 SE5       30.29F WCI  29
MOUNT WERNER   NOT AVBL
STEAMBOAT SPGS CLOUDY    28  24  83 CALM      30.29F
WALDEN         CLOUDY    23  19  86 E5        30.29F WCI  17
$$

COZ006>008-011-300900-
...WEST CENTRAL VALLEYS...

CITY           SKY/WX    TMP DP  RH WIND       PRES   REMARKS
GRAND JUNCTION CLOUDY    39  32  76 E5        30.25F
MONTROSE       MOCLDY    35  28  75 SE6       30.29F WCI  30
EAGLE          CLOUDY    34  28  80 CALM      30.33S
RIFLE          CLOUDY    38  28  67 CALM      30.28F
DELTA          CLOUDY    42  31  64 NE3       30.27F
NUCLA          DRIZZLE   41  36  81 CALM      30.31F
$$

COZ017>023-064>068-300900-
...SOUTHWEST COLORADO...

CITY           SKY/WX    TMP DP  RH WIND       PRES   REMARKS
DURANGO        CLOUDY    36  33  89 NE6       30.32F
CORTEZ         CLOUDY    44  33  65 CALM      30.27F
PAGOSA SPRINGS LGT SNOW  34  34 100 CALM      30.35F
TELLURIDE      LGT SNOW  32  31  96 CALM      30.32F
WOLF CREEK PAS NOT AVBL
$$

COZ009-010-012-014-032>034-037-058>063-300900-
...CENTRAL COLORADO...

CITY           SKY/WX    TMP DP  RH WIND       PRES   REMARKS
ASPEN          CLOUDY    33  24  69 CALM      30.29F
BUENA VISTA    CLOUDY    29  23  78 SE3       30.36F
COPPER MTN     LGT SNOW  27  18  69 W8        30.36F WCI  18
BERTHOUD PASS  CLOUDY    18  12  79 NW16      30.36F WCI   3
COTTONWOOD PAS CLOUDY    27  25  93 CALM      30.35F
GUNNISON       MOCLDY    28  27  93 N7        30.35F WCI  21
KREMMLING      CLOUDY    23  21  93 CALM      30.34S
LEADVILLE      LGT SNOW  21  20  96 CALM      30.34F FOG
MONARCH PASS   CLOUDY    23  21  93 MISG      30.46F
SALIDA         CLOUDY    32  28  85 NW5       30.43F WCI  27
SUNLIGHT       LGT SNOW  28  27  93 CALM      30.35
WILKERSON PASS CLOUDY    21  19  93 SW13G22   30.34F FOG     WCI   9
$$

COZ069>075-300900-
...SAN LUIS VALLEY/SANGRE DE CRISTO MOUNTAINS...

CITY           SKY/WX    TMP DP  RH WIND       PRES   REMARKS
ALAMOSA        LGT SNOW  32  30  92 S8        30.35F FOG     WCI  25
LA VETA PASS   LGT SNOW  23  21  93 S9        30.35F WCI  13
SAGUACHE       LGT SNOW  32  32 100 SE7       30.36F WCI  26
$$

COZ035-036-038>040-300900-
...NORTHERN COLORADO FRONT RANGE...

CITY           SKY/WX    TMP DP  RH WIND       PRES   REMARKS
DENVER INTL AP CLOUDY    36  23  59 W7        30.27F
DMNS CITY PARK   N/A     36  23  59 S1        30.26F
AURORA         MOCLDY    38  22  54 S18       30.26F
FRONT RANGE AP NOT AVBL
ERIE MUNI ARPT CLOUDY    29  26  87 CALM      30.28F
BOULDER MUN AP CLOUDY    34  27  75 CALM      30.27F
CENTENNIAL     CLOUDY    36  23  59 S14       30.26F
BROOMFIELD     CLOUDY    36  27  69 N6        30.28S
FORT COLLINS   CLOUDY    30  21  69 N5        30.29F WCI  25
LONGMONT       CLOUDY    31  25  81 CALM      30.30F
$$

COZ041-046-047-076>085-087-088-300900-
...PIKES PEAK/PALMER DIVIDE AND SOUTHERN FOOTHILLS...

CITY           SKY/WX    TMP DP  RH WIND       PRES   REMARKS
COLO. SPRINGS  CLOUDY    33  23  66 E6        30.34F WCI  28
A. F. ACADEMY  CLOUDY    32  22  65 SE6       30.33F WCI  27
ELLICOTT       CLOUDY   N/A N/A N/A S13       30.33F
FALCON         CLOUDY    31  22  69 S3        30.34F
FORT CARSON    CLOUDY    35  24  64 SE5       30.32F WCI  30
LIMON          MOCLDY    25  20  81 SE5       30.35F WCI  19
MONUMENT HILL  CLOUDY    32  21  64 S20       30.29F WCI  20
TRINIDAD       CLOUDY    39  25  57 SW6       30.35F
$$

COZ042>045-048>051-090-091-300900-
...NORTHEAST COLORADO...

CITY           SKY/WX    TMP DP  RH WIND       PRES   REMARKS
GREELEY ARPT   CLOUDY    30  21  69 CALM      30.28F
AKRON          CLOUDY    34  21  59 S12       30.32F WCI  25
BURLINGTON     MOCLDY    31  20  63 S13       30.38F WCI  21
WRAY           MOCLDY    32  24  71 CALM      30.38F
STERLING       CLOUDY    30  21  69 SW3       30.33F
HOLYOKE        NOT AVBL
FORT MORGAN    CLOUDY    32  24  72 SE6       30.32F WCI  26
$$

COZ086-089-092>099-300900-
...SOUTHEAST COLORADO...

CITY           SKY/WX    TMP DP  RH WIND       PRES   REMARKS
PUEBLO         CLOUDY    37  25  61 NE3       30.34F
LA JUNTA       CLOUDY    38  27  64 SE6       30.37F
LAMAR          MOCLDY    36  23  59 S3        30.40F
SPRINGFIELD      N/A     35  27  72 S10       30.41F WCI  27
$$



USA.gov is the U.S. government's official web portal to all federal, state and local government web resources and services.